Mitchell, SD

7:03 AM CST on November 15, 2019 (GMT -0600)
Mitchell Municipal

Weather History for KMHE - June, 2019

Change the Weather History Date:

Tuesday, June 11, 2019

  Actual Average Record
Temperature  
Mean Temperature 65 °F 68 °F  
Max Temperature 73 °F 79 °F 100 °F (2016)
Min Temperature 57 °F 57 °F 36 °F (1903)
Degree Days  
Heating Degree Days 0 1  
Month to date heating degree days 6 23  
Since 1 June heating degree days 6 23  
Since 1 July heating degree days 7985 7233  
Cooling Degree Days 0 4  
Month to date cooling degree days 56 36  
Year to date cooling degree days 75 76  
Since 1 June cooling degree days 56 36  
Growing Degree Days 15 (Base 50)    
Moisture  
Dew Point 53 °F    
Average Humidity 70    
Maximum Humidity 86    
Minimum Humidity 53    
Precipitation  
Precipitation 0.05 in 0.17 in 2.38 in (2010)
Month to date precipitation 0.13 1.67  
Year to date precipitation 11.97 8.40  
Snow  
Snow 0.00 in - 0.00 in ()
Month to date snowfall 0.0  
Since 1 June snowfall 0.0  
Since 1 July snowfall 67.6  
Snow Depth 0.00 in    
Sea Level Pressure  
Sea Level Pressure 30.03 in    
Wind  
Wind Speed 6 mph (SW)    
Max Wind Speed 25 mph    
Max Gust Speed 42 mph    
Visibility 10 miles    
Events Rain , Thunderstorm    
T = Trace of Precipitation, MM = Missing Value Source: NWS Daily Summary

Daily Weather History Graph

Daily Weather History Graph

Search for Another Location

Airport or City:

Astronomy

Jun. 11, 2019 Rise Set
Actual Time 5:49 AM CDT 9:13 PM CDT
Civil Twilight 5:14 AM CDT 9:49 PM CDT
Nautical Twilight 4:27 AM CDT 10:36 PM CDT
Astronomical Twilight 3:28 AM CDT 11:35 PM CDT
Moon 3:02 PM CDT (6/11) 2:48 AM CDT (6/11)
Length of Visible Light 16h 35m
Length of Day
15h 24m
Waxing Gibbous, 66% of the Moon is Illuminated
Jun 11
Waxing Gibbous
Jun 17
Full
Jun 25
Last Quarter
Jul 2
New
Jul 9
First Quarter

Hourly Weather History & Observations

Time (CDT) Temp. Dew Point Humidity Pressure Visibility Wind Dir Wind Speed Gust Speed Precip Events Conditions
12:53 AM 61.0 °F 52.0 °F 72% 30.14 in 10.0 mi SSE 4.6 mph - 0.01 in Rain Light Rain
1:53 AM 61.0 °F 53.1 °F 75% 30.14 in 10.0 mi East 3.5 mph - 0.00 in Rain Light Rain
2:53 AM 57.9 °F 53.1 °F 84% 30.11 in 10.0 mi SSE 6.9 mph - 0.01 in   Scattered Clouds
3:53 AM 57.0 °F 52.0 °F 83% 30.10 in 10.0 mi SSE 8.1 mph - N/A   Clear
4:53 AM 57.9 °F 52.0 °F 81% 30.08 in 10.0 mi SE 5.8 mph - N/A   Mostly Cloudy
5:53 AM 57.9 °F 53.1 °F 84% 30.07 in 10.0 mi ESE 5.8 mph - N/A   Mostly Cloudy
6:53 AM 59.0 °F 54.0 °F 83% 30.07 in 10.0 mi SE 4.6 mph - N/A   Overcast
7:53 AM 62.1 °F 53.1 °F 72% 30.06 in 10.0 mi SSE 5.8 mph - N/A   Clear
8:53 AM 64.0 °F 52.0 °F 65% 30.05 in 10.0 mi SSE 9.2 mph - N/A   Clear
9:53 AM 66.0 °F 53.1 °F 63% 30.04 in 10.0 mi SSW 6.9 mph - N/A   Clear
10:53 AM 66.0 °F 53.1 °F 63% 30.02 in 10.0 mi WSW 3.5 mph - N/A   Partly Cloudy
11:53 AM 68.0 °F 53.1 °F 59% 30.01 in 10.0 mi Calm Calm - N/A   Scattered Clouds
12:53 PM 69.1 °F 53.1 °F 57% 30.01 in 10.0 mi Variable 3.5 mph - N/A   Partly Cloudy
1:53 PM 70.0 °F 55.0 °F 59% 30.00 in 10.0 mi SSW 4.6 mph - N/A   Partly Cloudy
2:53 PM 73.0 °F 55.0 °F 53% 29.97 in 10.0 mi Variable 4.6 mph - N/A   Scattered Clouds
3:53 PM 71.1 °F 55.0 °F 57% 29.96 in 10.0 mi West 5.8 mph - N/A   Mostly Cloudy
4:14 PM 69.1 °F 53.1 °F 57% 29.97 in 10.0 mi NNW 10.4 mph - N/A Thunderstorm Overcast
4:33 PM 62.1 °F 52.0 °F 70% 29.97 in 6.0 mi WNW 17.3 mph 24.2 mph 0.02 in Rain , Thunderstorm Light Thunderstorms and Rain
4:53 PM 61.0 °F 53.1 °F 75% 29.96 in 10.0 mi NW 5.8 mph - 0.03 in Thunderstorm Overcast
5:09 PM 60.1 °F 55.0 °F 83% 30.00 in 10.0 mi North - - N/A   Overcast
5:53 PM 66.0 °F 52.0 °F 60% 29.98 in 10.0 mi Calm Calm - 0.00 in   Partly Cloudy
6:53 PM 69.1 °F 54.0 °F 58% 29.98 in 10.0 mi NW 6.9 mph - N/A   Clear
7:53 PM 66.9 °F 54.0 °F 63% 30.00 in 10.0 mi NNE 8.1 mph - N/A   Scattered Clouds
8:53 PM 63.0 °F 51.1 °F 65% 29.99 in 10.0 mi West 3.5 mph - 0.00 in   Clear
9:53 PM 61.0 °F 51.1 °F 70% 30.02 in 10.0 mi NW 10.4 mph - N/A   Overcast
10:53 PM 62.1 °F 50.0 °F 65% 30.02 in 10.0 mi NNW 6.9 mph - 0.01 in   Mostly Cloudy
11:53 PM 60.1 °F 51.1 °F 72% 30.04 in 10.0 mi NNW 6.9 mph - N/A   Overcast